Regional Weather Roundup
Issued by NWS Newport/Morehead, NC

Current Version | Previous Version | Text Only | Print | Product List | Glossary Off
Versions: 1 2 3 4 5 6 7 8 9 10 11 12 13 14 15 16 17 18 19 20 21 22 23 24 25 26 27 28 29 30 31 32 33 34 35 36 37 38 39 40 41 42 43 44 45 46 47 48 49 50
000 ASUS42 KMHX 211622 RWRMHX WEATHER ROUNDUP FOR EASTERN NORTH CAROLINA NATIONAL WEATHER SERVICE NEWPORT/MOREHEAD CITY NC 1200 PM EDT THU AUG 21 2014 NOTE: "FAIR" INDICATES FEW OR NO CLOUDS BELOW 12,000 FEET WITH NO SIGNIFICANT WEATHER AND/OR OBSTRUCTIONS TO VISIBILITY NCZ015>017-031-032-045>047-102-103-211700- NORTH COAST CITY SKY/WX TMP DP RH WIND PRES REMARKS EDENTON SUNNY 84 75 75 SW5 30.04F ELIZABETH CITY SUNNY 85 74 69 W8 30.04F KITTY HAWK MOSUNNY 85 75 71 W5 30.03F MANTEO PTSUNNY 82 73 74 S14G21 30.04F $$ NCZ045>047-081-094-103-104-211700- CENTRAL COAST CITY SKY/WX TMP DP RH WIND PRES REMARKS FRISCO MOSUNNY 81 76 84 VRB3 30.07R SWANQUARTER N/A 84 N/A N/A E3G12 30.00F $$ NCZ095-097-098-100-101-211700- SOUTHERN COAST CITY SKY/WX TMP DP RH WIND PRES REMARKS BEAUFORT MOSUNNY 87 80 79 S9 30.05F HX 103 CEDAR ISLAND N/A 86 N/A N/A E9 30.09S JACKSONVILLE PTSUNNY 89 75 63 VRB3 30.04F NEWPORT NOT AVBL PINEY ISLAND MOSUNNY 89 78 70 VRB6 30.05R HX 103 WILMINGTON MOSUNNY 92 73 53 NW5 30.05F HX 100 $$ NCZ011>013-027>030-043-044-078>080-089-090>093-098-211700- COASTAL PLAIN CITY SKY/WX TMP DP RH WIND PRES REMARKS AHOSKIE SUNNY 84 71 65 CALM 30.05S CLINTON PTSUNNY 89 75 62 CALM 30.06F ELIZABETHTOWN MOSUNNY 90 71 54 CALM 30.05F GOLDSBORO SUNNY 86 79 78 N3 30.03F HX 100 GREENVILLE MOSUNNY 86 75 70 NW3 30.06F HAVELOCK MOSUNNY 89 77 67 W8 30.05F HX 101 KENANSVILLE MOSUNNY 88 72 58 NW6 30.06F KINSTON SUNNY 88 75 66 CALM 30.05F NEW BERN SUNNY 90 76 63 W5 30.05F HX 101 RICHLANDS MOSUNNY 88 75 66 CALM 30.04F ROANOKE RAPIDS NOT AVBL ROCKY MOUNT MOSUNNY 85 74 69 W5 30.05F WASHINGTON MOSUNNY 85 75 71 CALM 30.05S WHITEVILLE MOSUNNY 90 74 60 CALM 30.05F $$ AMZ130-135-150-152-154-156-158-170-250-252-270-ANZ085-086-088-633-658-670-211700- MARINE OBSERVATIONS STATION/POSITION TIME TEMP WIND PRES WAVE SWELL AIR SEA DIR/SP/G HT/PER HT/PER (UTC) (F) (DEG/KT/KT) (MB) (FT/S) (FT/S) CHESAPEAKE LIGHT 1600 79 310/ 9/ 9 1017.5 BUOY 44014 1600 78 78 170/ 8/ 10 1017.0 2/ 6 2/ 6 DUCK 1600 80 78 210/ 7/ 9 1016.6 2E DUCK 1600 N/A 2/ 8 OREGON INLET 1600 76 82 250/ 18/ 27 1017.5 BUOY 44095 1600 80 N/A 3/ 7 20E OREGON INLET NOT AVBL HATTERAS CG 1600 82 81 220/ 5/ 7 1018.4 DIAMOND BUOY 1600 80 190/ 4/ 6 1018.1 2/ 9 2/ 9 CAPE LOOKOUT 1600 83 180/ 7/ 10 1017.8 BEAUFORT LAB 1600 83 82 180/ 9/ 10 1017.4 30 SE NEW RIVER 1600 82 83 200/ 6/ 6 1017.4 2/ 6 2/ 6 5 SE WRIGHTSVILL 1600 81 84 200/ 8/ 8 N/A BUOY 41002 1536 82 82 250/ 14/ 16 1020.0 3/ 5 2/ 8 BUOY 41004 1600 83 84 250/ 10/ 12 1017.6 2/ 5 2/ 5 $$

USA.gov is the U.S. government's official web portal to all federal, state and local government web resources and services.